Location: Larrial
(48.2758°N, 4.5331°W)
Time: 09:14:53
(UTC+00:00)

ASTEX 1 - Pass Details

Date: 09 April 2020
Orbit: 721 x 743 km, 92.7° (Epoch: 01 June)

Event Time Altitude Azimuth Distance (km) Brightness Sun altitude
Exits shadow 21:49:59 38° 61° (ENE) 1,123 4.2 -24.8°
Drops below altitude 10° 21:54:05 10° 8° (N) 2,250 6.4 -25.3°
Sets 21:56:30 0° 1° (N) 3,173 7.4 -25.5°
